Wetterdaten: aktuell Montag, 17.02.2020 07:26
Datum Zeit Temp. I. Temp. 2m Temp. 5cm LF I. Luftf.2m Luftdruck Regen Wind Richtung Richtung Taupunkt Windchill Windben
17.02.2020 07:26 7,5 C 0,8 C -0,3 C 70 % 89 % 1019,9 hPa 0,0 l/m 0,0 km/h (0 Bft) SO 135 -0,8 C 0,8 C 0,0 km/h (0 Bft)
17.02.2020 07:24 7,5 C 0,9 C -0,4 C 70 % 89 % 1019,9 hPa 0,0 l/m 0,0 km/h (0 Bft) SO 135 -0,7 C 0,9 C 0,0 km/h (0 Bft)
17.02.2020 07:22 7,5 C 1,1 C -0,3 C 70 % 89 % 1019,9 hPa 0,0 l/m 0,0 km/h (0 Bft) S 180 -0,5 C 1,1 C 0,0 km/h (0 Bft)
17.02.2020 07:20 7,5 C 1,1 C -0,4 C 70 % 89 % 1019,9 hPa 0,0 l/m 0,0 km/h (0 Bft) N-NO 22 -0,5 C 1,1 C 0,0 km/h (0 Bft)
17.02.2020 07:18 7,5 C 1,1 C -0,3 C 70 % 89 % 1019,9 hPa 0,0 l/m 0,0 km/h (0 Bft) S 180 -0,5 C 1,1 C 0,0 km/h (0 Bft)
17.02.2020 07:16 7,5 C 1,1 C -0,3 C 70 % 89 % 1019,9 hPa 0,0 l/m 0,0 km/h (0 Bft) O-NO 67 -0,5 C 1,1 C 0,0 km/h (0 Bft)
17.02.2020 07:14 7,5 C 1,1 C -0,2 C 70 % 89 % 1019,9 hPa 0,0 l/m 0,0 km/h (0 Bft) N 360 -0,5 C 1,1 C 0,0 km/h (0 Bft)
17.02.2020 07:12 7,5 C 1,2 C -0,3 C 70 % 89 % 1019,7 hPa 0,0 l/m 0,0 km/h (0 Bft) SO 135 -0,4 C 1,2 C 0,0 km/h (0 Bft)
17.02.2020 07:10 7,5 C 1,2 C -0,2 C 70 % 89 % 1019,7 hPa 0,0 l/m 0,0 km/h (0 Bft) SO 135 -0,4 C 1,2 C 0,0 km/h (0 Bft)
17.02.2020 07:08 7,5 C 1,1 C -0,3 C 70 % 89 % 1019,7 hPa 0,0 l/m 0,0 km/h (0 Bft) SO 135 -0,5 C 1,1 C 0,0 km/h (0 Bft)
17.02.2020 07:06 7,5 C 1,0 C -0,3 C 70 % 89 % 1019,7 hPa 0,0 l/m 0,0 km/h (0 Bft) N 360 -0,6 C 1,0 C 0,0 km/h (0 Bft)
17.02.2020 07:04 7,7 C 1,0 C -0,3 C 70 % 89 % 1019,7 hPa 0,0 l/m 0,0 km/h (0 Bft) N-NO 22 -0,6 C 1,0 C 0,0 km/h (0 Bft)
17.02.2020 07:02 7,7 C 0,6 C -0,3 C 70 % 89 % 1019,7 hPa 0,0 l/m 0,0 km/h (0 Bft) O-SO 112 -1,0 C 0,6 C 0,0 km/h (0 Bft)
17.02.2020 07:00 7,7 C 0,6 C -0,4 C 70 % 89 % 1019,7 hPa 0,0 l/m 0,0 km/h (0 Bft) N 360 -1,0 C 0,6 C 0,0 km/h (0 Bft)
17.02.2020 06:58 7,7 C 0,5 C -0,4 C 70 % 89 % 1019,7 hPa 0,0 l/m 0,0 km/h (0 Bft) N-NO 22 -1,1 C 0,5 C 0,0 km/h (0 Bft)
17.02.2020 06:56 7,7 C 0,6 C -0,4 C 70 % 89 % 1019,7 hPa 0,0 l/m 0,0 km/h (0 Bft) N-NO 22 -1,0 C 0,6 C 0,0 km/h (0 Bft)
17.02.2020 06:54 7,7 C 0,7 C -0,4 C 70 % 89 % 1019,7 hPa 0,0 l/m 0,0 km/h (0 Bft) NW 315 -0,9 C 0,7 C 0,0 km/h (0 Bft)
17.02.2020 06:52 7,6 C 0,7 C -0,3 C 70 % 89 % 1019,7 hPa 0,0 l/m 0,3 km/h (0 Bft) NW 315 -0,9 C 0,7 C 0,0 km/h (0 Bft)
17.02.2020 06:50 7,6 C 0,7 C -0,4 C 70 % 89 % 1019,7 hPa 0,0 l/m 0,3 km/h (0 Bft) W 270 -0,9 C 0,7 C 0,0 km/h (0 Bft)
17.02.2020 06:48 7,6 C 0,8 C -0,4 C 70 % 89 % 1019,7 hPa 0,0 l/m 0,5 km/h (0 Bft) O-SO 112 -0,8 C 0,8 C 0,0 km/h (0 Bft)
17.02.2020 06:46 7,7 C 0,7 C -0,4 C 70 % 89 % 1019,7 hPa 0,0 l/m 0,5 km/h (0 Bft) S 180 -0,9 C 0,7 C 0,0 km/h (0 Bft)
17.02.2020 06:44 7,7 C 0,7 C -0,3 C 70 % 89 % 1019,7 hPa 0,0 l/m 0,6 km/h (0 Bft) O-SO 112 -0,9 C 0,7 C 0,0 km/h (0 Bft)
17.02.2020 06:42 7,6 C 0,6 C -0,4 C 70 % 89 % 1019,7 hPa 0,0 l/m 0,3 km/h (0 Bft) NW 315 -1,0 C 0,6 C 3,8 km/h (1 Bft)
17.02.2020 06:40 7,7 C 0,7 C -0,4 C 70 % 89 % 1019,7 hPa 0,0 l/m 0,3 km/h (0 Bft) NW 315 -0,9 C 0,7 C 0,0 km/h (0 Bft)
17.02.2020 06:38 7,6 C 0,7 C -0,4 C 70 % 89 % 1019,7 hPa 0,0 l/m 0,2 km/h (0 Bft) W-NW 292 -0,9 C 0,7 C 0,0 km/h (0 Bft)
17.02.2020 06:36 7,6 C 0,7 C -0,3 C 70 % 89 % 1019,7 hPa 0,0 l/m 0,3 km/h (0 Bft) N-NO 22 -0,9 C 0,7 C 0,0 km/h (0 Bft)
17.02.2020 06:34 7,6 C 0,8 C -0,3 C 70 % 89 % 1019,7 hPa 0,0 l/m 0,2 km/h (0 Bft) N-NW 337 -0,8 C 0,8 C 2,1 km/h (1 Bft)
17.02.2020 06:32 7,6 C 1,0 C -0,2 C 70 % 89 % 1019,4 hPa 0,0 l/m 0,2 km/h (0 Bft) NW 315 -0,6 C 1,0 C 0,0 km/h (0 Bft)
17.02.2020 06:30 7,6 C 1,0 C -0,2 C 70 % 89 % 1019,4 hPa 0,0 l/m 0,2 km/h (0 Bft) W 270 -0,6 C 1,0 C 0,0 km/h (0 Bft)
17.02.2020 06:28 7,6 C 1,1 C -0,2 C 70 % 89 % 1019,4 hPa 0,0 l/m 0,2 km/h (0 Bft) W 270 -0,5 C 1,1 C 0,0 km/h (0 Bft)
17.02.2020 06:26 7,6 C 1,1 C 0,0 C 70 % 89 % 1019,4 hPa 0,0 l/m 0,0 km/h (0 Bft) W 270 -0,5 C 1,1 C 0,0 km/h (0 Bft)
17.02.2020 06:24 7,6 C 1,1 C 0,0 C 70 % 89 % 1019,4 hPa 0,0 l/m 0,0 km/h (0 Bft) N-NO 22 -0,5 C 1,1 C 0,0 km/h (0 Bft)
17.02.2020 06:22 7,6 C 1,1 C 0,0 C 70 % 89 % 1019,4 hPa 0,0 l/m 0,2 km/h (0 Bft) S-SO 157 -0,5 C 1,1 C 0,0 km/h (0 Bft)
17.02.2020 06:20 7,6 C 1,0 C 0,0 C 70 % 89 % 1019,4 hPa 0,0 l/m 0,3 km/h (0 Bft) O-SO 112 -0,6 C 1,0 C 0,0 km/h (0 Bft)
17.02.2020 06:18 7,8 C 1,0 C 0,0 C 70 % 89 % 1019,4 hPa 0,0 l/m 0,5 km/h (0 Bft) S-SW 202 -0,6 C 1,0 C 0,0 km/h (0 Bft)
17.02.2020 06:16 7,8 C 1,0 C 0,1 C 70 % 89 % 1019,4 hPa 0,0 l/m 0,6 km/h (0 Bft) W-SW 247 -0,6 C 1,0 C 0,0 km/h (0 Bft)
17.02.2020 06:14 7,8 C 0,7 C 0,1 C 70 % 89 % 1019,4 hPa 0,0 l/m 0,8 km/h (0 Bft) O-SO 112 -0,9 C 0,7 C 0,0 km/h (0 Bft)
17.02.2020 06:12 7,8 C 1,1 C 0,0 C 70 % 88 % 1019,6 hPa 0,0 l/m 0,3 km/h (0 Bft) S-SO 157 -0,7 C 1,1 C 2,3 km/h (1 Bft)
17.02.2020 06:10 7,8 C 1,1 C 0,0 C 70 % 88 % 1019,6 hPa 0,0 l/m 0,3 km/h (0 Bft) S-SO 157 -0,7 C 1,1 C 2,3 km/h (1 Bft)
17.02.2020 06:08 7,8 C 1,1 C 0,0 C 70 % 88 % 1019,6 hPa 0,0 l/m 0,3 km/h (0 Bft) S-SO 157 -0,7 C 1,1 C 2,3 km/h (1 Bft)
17.02.2020 06:06 7,8 C 1,1 C 0,0 C 70 % 88 % 1019,6 hPa 0,0 l/m 0,3 km/h (0 Bft) S-SO 157 -0,7 C 1,1 C 2,3 km/h (1 Bft)
17.02.2020 06:04 7,8 C 1,1 C 0,0 C 70 % 88 % 1019,6 hPa 0,0 l/m 0,3 km/h (0 Bft) S-SO 157 -0,7 C 1,1 C 2,3 km/h (1 Bft)
17.02.2020 06:02 7,8 C 0,8 C -0,2 C 70 % 89 % 1019,6 hPa 0,0 l/m 0,3 km/h (0 Bft) W-NW 292 -0,8 C 0,8 C 2,3 km/h (1 Bft)
17.02.2020 06:00 7,8 C 0,7 C -0,4 C 70 % 88 % 1019,6 hPa 0,0 l/m 0,3 km/h (0 Bft) N-NW 337 -1,1 C 0,7 C 0,0 km/h (0 Bft)
17.02.2020 05:58 7,9 C 0,5 C -0,5 C 70 % 88 % 1019,6 hPa 0,0 l/m 0,3 km/h (0 Bft) SO 135 -1,3 C 0,5 C 0,0 km/h (0 Bft)
17.02.2020 05:56 7,9 C 0,4 C -0,6 C 70 % 88 % 1019,6 hPa 0,0 l/m 0,0 km/h (0 Bft) W-SW 247 -1,3 C 0,4 C 0,0 km/h (0 Bft)
17.02.2020 05:54 7,9 C 0,3 C -0,6 C 70 % 88 % 1019,6 hPa 0,0 l/m 0,0 km/h (0 Bft) NW 315 -1,4 C 0,3 C 0,0 km/h (0 Bft)
17.02.2020 05:52 7,9 C -0,1 C -0,8 C 70 % 88 % 1019,7 hPa 0,0 l/m 0,0 km/h (0 Bft) N-NO 22 -1,8 C -0,1 C 0,0 km/h (0 Bft)
17.02.2020 05:50 7,9 C -0,1 C -0,8 C 70 % 88 % 1019,7 hPa 0,0 l/m 0,0 km/h (0 Bft) S-SO 157 -1,8 C -0,1 C 0,0 km/h (0 Bft)
17.02.2020 05:48 7,8 C -0,1 C -1,0 C 70 % 88 % 1019,7 hPa 0,0 l/m 0,2 km/h (0 Bft) SW 225 -1,8 C -0,1 C 0,0 km/h (0 Bft)
17.02.2020 05:46 7,8 C -0,2 C -0,8 C 70 % 88 % 1019,7 hPa 0,0 l/m 0,3 km/h (0 Bft) W 270 -1,9 C -0,2 C 0,0 km/h (0 Bft)
17.02.2020 05:44 7,8 C -0,1 C -0,8 C 70 % 88 % 1019,7 hPa 0,0 l/m 0,8 km/h (0 Bft) N-NO 22 -1,8 C -0,1 C 0,0 km/h (0 Bft)
17.02.2020 05:42 8,0 C -0,2 C -0,8 C 70 % 88 % 1019,7 hPa 0,0 l/m 0,8 km/h (0 Bft) SO 135 -1,9 C -0,2 C 0,0 km/h (0 Bft)
17.02.2020 05:40 8,0 C -0,1 C -0,8 C 70 % 88 % 1019,7 hPa 0,0 l/m 0,8 km/h (0 Bft) N 360 -1,8 C -0,1 C 0,0 km/h (0 Bft)
17.02.2020 05:38 8,0 C 0,0 C -1,0 C 70 % 88 % 1019,7 hPa 0,0 l/m 0,6 km/h (0 Bft) N-NW 337 -1,7 C 0,0 C 3,3 km/h (1 Bft)
17.02.2020 05:36 8,0 C 0,0 C -0,7 C 70 % 88 % 1019,7 hPa 0,0 l/m 0,6 km/h (0 Bft) O-SO 112 -1,7 C 0,0 C 0,0 km/h (0 Bft)
17.02.2020 05:34 8,0 C 0,0 C -0,7 C 70 % 88 % 1019,7 hPa 0,0 l/m 0,3 km/h (0 Bft) SO 135 -1,7 C 0,0 C 4,2 km/h (1 Bft)
17.02.2020 05:32 8,0 C 0,0 C -0,7 C 70 % 88 % 1019,9 hPa 0,0 l/m 0,0 km/h (0 Bft) S-SO 157 -1,7 C 0,0 C 0,0 km/h (0 Bft)
17.02.2020 05:30 8,0 C 0,0 C -0,7 C 71 % 88 % 1019,9 hPa 0,0 l/m 0,0 km/h (0 Bft) NW 315 -1,7 C 0,0 C 0,0 km/h (0 Bft)
17.02.2020 05:28 8,0 C 0,1 C -0,6 C 70 % 88 % 1019,9 hPa 0,0 l/m 0,0 km/h (0 Bft) SO 135 -1,6 C 0,1 C 0,0 km/h (0 Bft)
17.02.2020 05:26 8,0 C 0,1 C -0,6 C 70 % 88 % 1019,9 hPa 0,0 l/m 0,0 km/h (0 Bft) O-SO 112 -1,6 C 0,1 C 0,0 km/h (0 Bft)
17.02.2020 05:24 8,0 C 0,3 C -0,5 C 71 % 88 % 1019,9 hPa 0,0 l/m 0,0 km/h (0 Bft) S 180 -1,4 C 0,3 C 0,0 km/h (0 Bft)
17.02.2020 05:22 8,0 C 0,3 C -0,5 C 70 % 88 % 1019,9 hPa 0,0 l/m 0,0 km/h (0 Bft) S 180 -1,4 C 0,3 C 0,0 km/h (0 Bft)
17.02.2020 05:20 8,0 C 0,3 C -0,5 C 70 % 88 % 1019,9 hPa 0,0 l/m 0,0 km/h (0 Bft) W 270 -1,4 C 0,3 C 0,0 km/h (0 Bft)
17.02.2020 05:18 7,9 C 0,3 C -0,5 C 71 % 88 % 1019,9 hPa 0,0 l/m 0,0 km/h (0 Bft) O 90 -1,4 C 0,3 C 0,0 km/h (0 Bft)
17.02.2020 05:16 8,0 C 0,1 C -0,5 C 71 % 87 % 1019,9 hPa 0,0 l/m 0,0 km/h (0 Bft) N-NO 22 -1,8 C 0,1 C 0,0 km/h (0 Bft)
17.02.2020 05:14 8,0 C 0,1 C -0,5 C 70 % 87 % 1019,9 hPa 0,0 l/m 0,0 km/h (0 Bft) N-NW 337 -1,8 C 0,1 C 0,0 km/h (0 Bft)
17.02.2020 05:12 7,9 C 0,1 C -0,5 C 70 % 87 % 1019,8 hPa 0,0 l/m 0,0 km/h (0 Bft) NO 45 -1,8 C 0,1 C 0,0 km/h (0 Bft)
17.02.2020 05:10 7,9 C 0,3 C -0,4 C 70 % 87 % 1019,8 hPa 0,0 l/m 0,0 km/h (0 Bft) O-SO 112 -1,6 C 0,3 C 0,0 km/h (0 Bft)
17.02.2020 05:08 7,9 C 0,3 C -0,2 C 70 % 87 % 1019,8 hPa 0,0 l/m 0,0 km/h (0 Bft) O-SO 112 -1,6 C 0,3 C 0,0 km/h (0 Bft)
17.02.2020 05:06 7,9 C 0,1 C -0,3 C 70 % 87 % 1019,8 hPa 0,0 l/m 0,2 km/h (0 Bft) SO 135 -1,8 C 0,1 C 0,0 km/h (0 Bft)
17.02.2020 05:04 7,9 C 0,1 C -0,3 C 70 % 87 % 1019,8 hPa 0,0 l/m 0,2 km/h (0 Bft) NO 45 -1,8 C 0,1 C 0,0 km/h (0 Bft)
17.02.2020 05:02 7,9 C 0,1 C -0,3 C 70 % 87 % 1019,8 hPa 0,0 l/m 0,2 km/h (0 Bft) N-NW 337 -1,8 C 0,1 C 0,0 km/h (0 Bft)
17.02.2020 05:00 7,9 C 0,1 C -0,2 C 70 % 87 % 1019,8 hPa 0,0 l/m 0,2 km/h (0 Bft) O-SO 112 -1,8 C 0,1 C 0,0 km/h (0 Bft)
17.02.2020 04:58 8,1 C 0,1 C -0,3 C 70 % 87 % 1019,8 hPa 0,0 l/m 0,3 km/h (0 Bft) SO 135 -1,8 C 0,1 C 0,0 km/h (0 Bft)
17.02.2020 04:56 8,1 C 0,1 C -0,2 C 70 % 87 % 1019,8 hPa 0,0 l/m 1,0 km/h (0 Bft) W-NW 292 -1,8 C 0,1 C 2,7 km/h (1 Bft)
17.02.2020 04:54 8,1 C 0,1 C -0,2 C 70 % 87 % 1019,8 hPa 0,0 l/m 1,8 km/h (1 Bft) NO 45 -1,8 C 0,1 C 0,0 km/h (0 Bft)
17.02.2020 04:52 8,1 C 0,1 C 0,0 C 70 % 87 % 1019,6 hPa 0,0 l/m 2,1 km/h (1 Bft) O-NO 67 -1,8 C 0,1 C 0,0 km/h (0 Bft)
17.02.2020 04:50 8,1 C 0,1 C 0,0 C 70 % 87 % 1019,6 hPa 0,0 l/m 2,4 km/h (1 Bft) O-NO 67 -1,8 C 0,1 C 0,0 km/h (0 Bft)
17.02.2020 04:48 8,1 C 0,0 C -0,2 C 70 % 87 % 1019,6 hPa 0,0 l/m 2,6 km/h (1 Bft) NW 315 -1,9 C 0,0 C 2,5 km/h (1 Bft)
17.02.2020 04:46 8,1 C -0,1 C -0,2 C 70 % 87 % 1019,6 hPa 0,0 l/m 1,9 km/h (1 Bft) N-NW 337 -2,0 C -0,1 C 5,0 km/h (1 Bft)
17.02.2020 04:44 8,1 C -0,1 C -0,3 C 70 % 87 % 1019,6 hPa 0,0 l/m 1,4 km/h (1 Bft) N 360 -2,0 C -0,1 C 7,1 km/h (2 Bft)
17.02.2020 04:42 8,1 C -0,2 C -0,3 C 70 % 87 % 1019,6 hPa 0,0 l/m 0,8 km/h (0 Bft) W-NW 292 -2,1 C -0,2 C 0,0 km/h (0 Bft)
17.02.2020 04:40 8,1 C -0,2 C -0,3 C 70 % 87 % 1019,6 hPa 0,0 l/m 0,6 km/h (0 Bft) NW 315 -2,1 C -0,2 C 3,6 km/h (1 Bft)
17.02.2020 04:38 8,1 C -0,2 C -0,2 C 70 % 87 % 1019,6 hPa 0,0 l/m 0,5 km/h (0 Bft) O-SO 112 -2,1 C -0,2 C 0,0 km/h (0 Bft)
17.02.2020 04:36 8,1 C -0,1 C -0,4 C 70 % 87 % 1019,6 hPa 0,0 l/m 0,3 km/h (0 Bft) W-SW 247 -2,0 C -0,1 C 0,0 km/h (0 Bft)
17.02.2020 04:34 8,1 C -0,1 C -0,3 C 70 % 87 % 1019,6 hPa 0,0 l/m 0,3 km/h (0 Bft) O 90 -2,0 C -0,1 C 0,0 km/h (0 Bft)
17.02.2020 04:32 8,1 C 0,0 C -0,3 C 70 % 87 % 1019,8 hPa 0,0 l/m 0,2 km/h (0 Bft) SO 135 -1,9 C 0,0 C 2,7 km/h (1 Bft)
17.02.2020 04:30 8,1 C 0,1 C -0,2 C 70 % 87 % 1019,8 hPa 0,0 l/m 0,0 km/h (0 Bft) S-SO 157 -1,8 C 0,1 C 0,0 km/h (0 Bft)
17.02.2020 04:28 8,1 C 0,4 C 0,0 C 70 % 87 % 1019,8 hPa 0,0 l/m 0,0 km/h (0 Bft) SO 135 -1,5 C 0,4 C 0,0 km/h (0 Bft)
17.02.2020 04:26 8,2 C 0,6 C 0,0 C 70 % 87 % 1019,8 hPa 0,0 l/m 0,2 km/h (0 Bft) SO 135 -1,3 C 0,6 C 0,0 km/h (0 Bft)
17.02.2020 04:24 8,2 C 0,6 C 0,2 C 70 % 87 % 1019,8 hPa 0,0 l/m 0,2 km/h (0 Bft) S-SO 157 -1,3 C 0,6 C 0,0 km/h (0 Bft)
17.02.2020 04:22 8,2 C 0,6 C 0,2 C 70 % 87 % 1019,8 hPa 0,0 l/m 0,2 km/h (0 Bft) S-SO 157 -1,3 C 0,6 C 0,0 km/h (0 Bft)
17.02.2020 04:20 8,2 C 0,6 C 0,2 C 70 % 87 % 1019,8 hPa 0,0 l/m 0,2 km/h (0 Bft) O-SO 112 -1,3 C 0,6 C 0,0 km/h (0 Bft)
17.02.2020 04:18 8,2 C 0,6 C 0,1 C 70 % 87 % 1019,8 hPa 0,0 l/m 0,6 km/h (0 Bft) O-SO 112 -1,3 C 0,6 C 0,0 km/h (0 Bft)
17.02.2020 04:16 8,2 C 0,5 C 0,1 C 70 % 87 % 1019,8 hPa 0,0 l/m 0,8 km/h (0 Bft) SO 135 -1,4 C 0,5 C 0,0 km/h (0 Bft)
17.02.2020 04:14 8,2 C 0,5 C 0,0 C 70 % 87 % 1019,8 hPa 0,0 l/m 1,4 km/h (1 Bft) O-SO 112 -1,4 C 0,5 C 0,0 km/h (0 Bft)
17.02.2020 04:12 8,2 C 0,4 C -0,2 C 70 % 87 % 1019,8 hPa 0,0 l/m 1,6 km/h (1 Bft) N-NW 337 -1,5 C 0,4 C 0,0 km/h (0 Bft)
17.02.2020 04:10 8,2 C 0,4 C -0,2 C 70 % 87 % 1019,8 hPa 0,0 l/m 2,1 km/h (1 Bft) NW 315 -1,5 C 0,4 C 0,0 km/h (0 Bft)
17.02.2020 04:08 8,2 C 0,3 C -0,4 C 70 % 87 % 1019,8 hPa 0,0 l/m 2,1 km/h (1 Bft) N-NW 337 -1,6 C 0,3 C 3,8 km/h (1 Bft)
17.02.2020 04:06 8,2 C 0,1 C -0,5 C 70 % 86 % 1019,8 hPa 0,0 l/m 1,9 km/h (1 Bft) N-NW 337 -2,0 C 0,1 C 3,8 km/h (1 Bft)
17.02.2020 04:04 8,1 C 0,0 C -0,6 C 70 % 86 % 1019,8 hPa 0,0 l/m 1,3 km/h (1 Bft) N 360 -2,1 C 0,0 C 4,2 km/h (1 Bft)
17.02.2020 04:02 8,1 C -0,1 C -0,8 C 70 % 86 % 1019,8 hPa 0,0 l/m 1,0 km/h (0 Bft) N-NW 337 -2,2 C -0,1 C 3,8 km/h (1 Bft)
17.02.2020 04:00 8,1 C -0,1 C -0,8 C 70 % 86 % 1019,8 hPa 0,0 l/m 0,5 km/h (0 Bft) NO 45 -2,2 C -0,1 C 4,6 km/h (1 Bft)
17.02.2020 03:58 8,1 C -0,1 C -1,0 C 70 % 86 % 1019,8 hPa 0,0 l/m 0,3 km/h (0 Bft) O 90 -2,2 C -0,1 C 0,0 km/h (0 Bft)
17.02.2020 03:56 8,1 C -0,1 C -1,1 C 70 % 86 % 1019,8 hPa 0,0 l/m 0,0 km/h (0 Bft) NW 315 -2,2 C -0,1 C 2,1 km/h (1 Bft)
17.02.2020 03:54 8,1 C 0,0 C -1,0 C 70 % 86 % 1019,8 hPa 0,0 l/m 0,0 km/h (0 Bft) NW 315 -2,1 C 0,0 C 0,0 km/h (0 Bft)
17.02.2020 03:52 8,3 C 0,0 C -1,0 C 70 % 86 % 1019,2 hPa 0,0 l/m 0,0 km/h (0 Bft) O-SO 112 -2,1 C 0,0 C 0,0 km/h (0 Bft)
17.02.2020 03:50 8,3 C 0,0 C -0,8 C 70 % 86 % 1019,2 hPa 0,0 l/m 0,0 km/h (0 Bft) S 180 -2,1 C 0,0 C 0,0 km/h (0 Bft)
17.02.2020 03:48 8,3 C -0,1 C -0,8 C 70 % 86 % 1019,2 hPa 0,0 l/m 0,0 km/h (0 Bft) SO 135 -2,2 C -0,1 C 0,0 km/h (0 Bft)
17.02.2020 03:46 8,3 C -0,1 C -0,8 C 70 % 86 % 1019,2 hPa 0,0 l/m 0,5 km/h (0 Bft) NW 315 -2,2 C -0,1 C 0,0 km/h (0 Bft)
17.02.2020 03:44 8,3 C -0,1 C -0,8 C 70 % 86 % 1019,2 hPa 0,0 l/m 0,5 km/h (0 Bft) S-SO 157 -2,2 C -0,1 C 0,0 km/h (0 Bft)
17.02.2020 03:42 8,2 C -0,2 C -1,0 C 70 % 86 % 1019,2 hPa 0,0 l/m 1,1 km/h (1 Bft) NW 315 -2,3 C -0,2 C 0,0 km/h (0 Bft)
17.02.2020 03:40 8,2 C -0,2 C -1,0 C 70 % 86 % 1019,2 hPa 0,0 l/m 1,4 km/h (1 Bft) S-SO 157 -2,3 C -0,2 C 0,0 km/h (0 Bft)
17.02.2020 03:38 8,2 C -0,2 C -1,2 C 70 % 86 % 1019,2 hPa 0,0 l/m 2,1 km/h (1 Bft) S 180 -2,3 C -0,2 C 0,0 km/h (0 Bft)
17.02.2020 03:36 8,4 C -0,2 C -1,2 C 70 % 86 % 1019,2 hPa 0,0 l/m 1,9 km/h (1 Bft) NW 315 -2,3 C -0,2 C 7,5 km/h (2 Bft)
17.02.2020 03:34 8,4 C -0,1 C -1,1 C 70 % 86 % 1019,2 hPa 0,0 l/m 1,6 km/h (1 Bft) O 90 -2,2 C -0,1 C 0,0 km/h (0 Bft)
17.02.2020 03:32 8,4 C 0,1 C -0,9 C 70 % 86 % 1019,4 hPa 0,0 l/m 1,4 km/h (1 Bft) SO 135 -2,0 C 0,1 C 6,3 km/h (2 Bft)
17.02.2020 03:30 8,4 C 0,0 C -0,9 C 70 % 86 % 1019,4 hPa 0,0 l/m 0,8 km/h (0 Bft) SO 135 -2,1 C 0,0 C 0,0 km/h (0 Bft)
17.02.2020 03:28 8,4 C 0,0 C -0,9 C 70 % 86 % 1019,4 hPa 0,0 l/m 0,5 km/h (0 Bft) NW 315 -2,1 C 0,0 C 6,3 km/h (2 Bft)
17.02.2020 03:26 8,4 C -0,1 C -1,0 C 70 % 86 % 1019,4 hPa 0,0 l/m 0,0 km/h (0 Bft) O-SO 112 -2,2 C -0,1 C 0,0 km/h (0 Bft)
17.02.2020 03:24 8,4 C -0,2 C -1,0 C 70 % 86 % 1019,4 hPa 0,0 l/m 0,0 km/h (0 Bft) O-SO 112 -2,3 C -0,2 C 0,0 km/h (0 Bft)
17.02.2020 03:22 8,4 C -0,2 C -1,3 C 70 % 86 % 1019,4 hPa 0,0 l/m 0,2 km/h (0 Bft) N-NW 337 -2,3 C -0,2 C 0,0 km/h (0 Bft)
17.02.2020 03:20 8,4 C -0,1 C -1,3 C 70 % 86 % 1019,4 hPa 0,0 l/m 0,2 km/h (0 Bft) N-NW 337 -2,2 C -0,1 C 2,9 km/h (1 Bft)
17.02.2020 03:18 8,4 C 0,0 C -1,1 C 70 % 86 % 1019,4 hPa 0,0 l/m 0,2 km/h (0 Bft) N-NO 22 -2,1 C 0,0 C 0,0 km/h (0 Bft)
17.02.2020 03:16 8,4 C 0,1 C -1,1 C 70 % 86 % 1019,4 hPa 0,0 l/m 0,2 km/h (0 Bft) SO 135 -2,0 C 0,1 C 0,0 km/h (0 Bft)
17.02.2020 03:14 8,3 C 0,3 C -1,0 C 70 % 86 % 1019,4 hPa 0,0 l/m 0,2 km/h (0 Bft) O-SO 112 -1,8 C 0,3 C 0,0 km/h (0 Bft)
17.02.2020 03:12 8,3 C 0,3 C -0,7 C 70 % 86 % 1019,6 hPa 0,0 l/m 0,2 km/h (0 Bft) NO 45 -1,8 C 0,3 C 0,0 km/h (0 Bft)
17.02.2020 03:10 8,3 C 0,3 C -0,7 C 70 % 86 % 1019,6 hPa 0,0 l/m 0,2 km/h (0 Bft) NO 45 -1,8 C 0,3 C 0,0 km/h (0 Bft)
17.02.2020 03:08 8,3 C 0,3 C -0,7 C 70 % 86 % 1019,6 hPa 0,0 l/m 0,2 km/h (0 Bft) NO 45 -1,8 C 0,3 C 0,0 km/h (0 Bft)
17.02.2020 03:06 8,3 C 0,3 C -0,7 C 70 % 86 % 1019,6 hPa 0,0 l/m 0,2 km/h (0 Bft) NO 45 -1,8 C 0,3 C 0,0 km/h (0 Bft)
17.02.2020 03:04 8,3 C 0,3 C -0,7 C 70 % 86 % 1019,6 hPa 0,0 l/m 0,2 km/h (0 Bft) NO 45 -1,8 C 0,3 C 0,0 km/h (0 Bft)
17.02.2020 03:02 8,3 C 0,3 C -0,6 C 70 % 86 % 1019,6 hPa 0,0 l/m 0,2 km/h (0 Bft) NO 45 -1,8 C 0,3 C 0,0 km/h (0 Bft)
17.02.2020 03:00 8,3 C 0,0 C -0,7 C 70 % 86 % 1019,6 hPa 0,0 l/m 0,2 km/h (0 Bft) N-NO 22 -2,1 C 0,0 C 0,0 km/h (0 Bft)
17.02.2020 02:58 8,5 C 0,0 C -0,7 C 70 % 86 % 1019,6 hPa 0,0 l/m 0,3 km/h (0 Bft) N 360 -2,1 C 0,0 C 0,0 km/h (0 Bft)
17.02.2020 02:56 8,5 C 0,0 C -1,0 C 70 % 86 % 1019,6 hPa 0,0 l/m 0,5 km/h (0 Bft) N-NW 337 -2,1 C 0,0 C 0,0 km/h (0 Bft)
17.02.2020 02:54 8,5 C 0,0 C -1,0 C 70 % 86 % 1019,6 hPa 0,0 l/m 0,3 km/h (0 Bft) NW 315 -2,1 C 0,0 C 0,0 km/h (0 Bft)
17.02.2020 02:52 8,4 C -0,1 C -1,0 C 70 % 86 % 1019,7 hPa 0,0 l/m 0,3 km/h (0 Bft) NW 315 -2,2 C -0,1 C 0,0 km/h (0 Bft)
17.02.2020 02:50 8,4 C -0,1 C -0,9 C 70 % 86 % 1019,7 hPa 0,0 l/m 0,3 km/h (0 Bft) N-NW 337 -2,2 C -0,1 C 0,0 km/h (0 Bft)
17.02.2020 02:48 8,4 C 0,0 C -1,0 C 70 % 86 % 1019,7 hPa 0,0 l/m 0,3 km/h (0 Bft) N-NO 22 -2,1 C 0,0 C 2,7 km/h (1 Bft)
17.02.2020 02:46 8,4 C 0,1 C -1,3 C 70 % 86 % 1019,7 hPa 0,0 l/m 0,3 km/h (0 Bft) SO 135 -2,0 C 0,1 C 0,0 km/h (0 Bft)
17.02.2020 02:44 8,4 C 0,1 C -1,1 C 70 % 86 % 1019,7 hPa 0,0 l/m 0,5 km/h (0 Bft) SO 135 -2,0 C 0,1 C 0,0 km/h (0 Bft)
17.02.2020 02:42 8,6 C 0,3 C -1,1 C 70 % 86 % 1019,7 hPa 0,0 l/m 0,5 km/h (0 Bft) SO 135 -1,8 C 0,3 C 0,0 km/h (0 Bft)
17.02.2020 02:40 8,6 C 0,1 C -1,0 C 70 % 86 % 1019,7 hPa 0,0 l/m 0,5 km/h (0 Bft) S-SO 157 -2,0 C 0,1 C 0,0 km/h (0 Bft)
17.02.2020 02:38 8,6 C 0,1 C -0,9 C 70 % 86 % 1019,7 hPa 0,0 l/m 0,5 km/h (0 Bft) S 180 -2,0 C 0,1 C 0,0 km/h (0 Bft)
17.02.2020 02:36 8,6 C 0,0 C -0,9 C 70 % 85 % 1019,7 hPa 0,0 l/m 0,5 km/h (0 Bft) N 360 -2,2 C 0,0 C 2,1 km/h (1 Bft)
17.02.2020 02:34 8,6 C -0,1 C -1,0 C 70 % 85 % 1019,7 hPa 0,0 l/m 0,0 km/h (0 Bft) N-NO 22 -2,3 C -0,1 C 2,9 km/h (1 Bft)
17.02.2020 02:32 8,6 C -0,1 C -1,1 C 70 % 85 % 1019,9 hPa 0,0 l/m 0,0 km/h (0 Bft) NW 315 -2,3 C -0,1 C 0,0 km/h (0 Bft)
17.02.2020 02:30 8,6 C -0,1 C -1,3 C 70 % 85 % 1019,9 hPa 0,0 l/m 0,0 km/h (0 Bft) N-NW 337 -2,3 C -0,1 C 0,0 km/h (0 Bft)
17.02.2020 02:28 8,6 C 0,0 C -1,4 C 70 % 85 % 1019,9 hPa 0,0 l/m 0,0 km/h (0 Bft) N-NO 22 -2,2 C 0,0 C 0,0 km/h (0 Bft)
17.02.2020 02:26 8,6 C 0,1 C -1,3 C 70 % 85 % 1019,9 hPa 0,0 l/m 0,0 km/h (0 Bft) O-NO 67 -2,1 C 0,1 C 0,0 km/h (0 Bft)
17.02.2020 02:24 8,7 C 0,3 C -1,4 C 70 % 85 % 1019,9 hPa 0,0 l/m 0,0 km/h (0 Bft) S 180 -1,9 C 0,3 C 0,0 km/h (0 Bft)
17.02.2020 02:22 8,7 C 0,3 C -1,3 C 70 % 85 % 1019,9 hPa 0,0 l/m 0,0 km/h (0 Bft) S-SO 157 -1,9 C 0,3 C 0,0 km/h (0 Bft)
17.02.2020 02:20 8,6 C 0,4 C -1,3 C 70 % 85 % 1019,9 hPa 0,0 l/m 0,0 km/h (0 Bft) S-SO 157 -1,8 C 0,4 C 0,0 km/h (0 Bft)
17.02.2020 02:18 8,7 C 0,4 C -1,1 C 70 % 85 % 1019,9 hPa 0,0 l/m 0,0 km/h (0 Bft) N-NO 22 -1,8 C 0,4 C 0,0 km/h (0 Bft)
17.02.2020 02:16 8,6 C 0,3 C -1,0 C 70 % 85 % 1019,9 hPa 0,0 l/m 0,0 km/h (0 Bft) N-NO 22 -1,9 C 0,3 C 0,0 km/h (0 Bft)
17.02.2020 02:14 8,8 C 0,6 C -1,0 C 70 % 85 % 1019,9 hPa 0,0 l/m 0,0 km/h (0 Bft) N-NO 22 -1,6 C 0,6 C 0,0 km/h (0 Bft)
17.02.2020 02:12 8,8 C 0,7 C -1,0 C 70 % 85 % 1020,1 hPa 0,0 l/m 0,0 km/h (0 Bft) N-NO 22 -1,5 C 0,7 C 0,0 km/h (0 Bft)
17.02.2020 02:10 8,8 C 0,8 C -0,9 C 70 % 85 % 1020,1 hPa 0,0 l/m 0,0 km/h (0 Bft) N-NO 22 -1,4 C 0,8 C 0,0 km/h (0 Bft)
17.02.2020 02:08 8,8 C 0,9 C -0,7 C 70 % 85 % 1020,1 hPa 0,0 l/m 0,0 km/h (0 Bft) S-SO 157 -1,3 C 0,9 C 0,0 km/h (0 Bft)
17.02.2020 02:06 8,8 C 1,1 C -0,7 C 70 % 85 % 1020,1 hPa 0,0 l/m 0,0 km/h (0 Bft) S 180 -1,1 C 1,1 C 0,0 km/h (0 Bft)
17.02.2020 02:04 8,8 C 1,1 C -0,5 C 70 % 85 % 1020,1 hPa 0,0 l/m 0,0 km/h (0 Bft) SO 135 -1,1 C 1,1 C 0,0 km/h (0 Bft)
17.02.2020 02:02 8,8 C 1,1 C -0,4 C 70 % 85 % 1020,1 hPa 0,0 l/m 0,0 km/h (0 Bft) SO 135 -1,1 C 1,1 C 0,0 km/h (0 Bft)
17.02.2020 02:00 8,8 C 1,2 C -0,5 C 70 % 85 % 1020,1 hPa 0,0 l/m 0,0 km/h (0 Bft) S-SO 157 -1,0 C 1,2 C 0,0 km/h (0 Bft)
17.02.2020 01:58 8,8 C 1,2 C -0,4 C 70 % 85 % 1020,1 hPa 0,0 l/m 0,2 km/h (0 Bft) SO 135 -1,0 C 1,2 C 0,0 km/h (0 Bft)
17.02.2020 01:56 8,9 C 1,2 C -0,3 C 70 % 85 % 1020,1 hPa 0,0 l/m 0,2 km/h (0 Bft) S-SO 157 -1,0 C 1,2 C 0,0 km/h (0 Bft)
17.02.2020 01:54 8,8 C 1,3 C -0,3 C 70 % 85 % 1020,1 hPa 0,0 l/m 0,2 km/h (0 Bft) NO 45 -0,9 C 1,3 C 0,0 km/h (0 Bft)
17.02.2020 01:52 8,9 C 1,4 C -0,2 C 70 % 85 % 1020,0 hPa 0,0 l/m 0,2 km/h (0 Bft) O-SO 112 -0,8 C 1,4 C 0,0 km/h (0 Bft)
17.02.2020 01:50 8,8 C 1,5 C 0,1 C 70 % 85 % 1020,0 hPa 0,0 l/m 0,2 km/h (0 Bft) SO 135 -0,7 C 1,5 C 0,0 km/h (0 Bft)
17.02.2020 01:48 8,8 C 1,6 C 0,1 C 70 % 85 % 1020,0 hPa 0,0 l/m 0,0 km/h (0 Bft) SO 135 -0,6 C 1,6 C 0,0 km/h (0 Bft)
17.02.2020 01:46 8,8 C 1,5 C 0,3 C 70 % 85 % 1020,0 hPa 0,0 l/m 0,0 km/h (0 Bft) S-SO 157 -0,7 C 1,5 C 0,0 km/h (0 Bft)
17.02.2020 01:44 8,8 C 1,3 C 0,4 C 70 % 85 % 1020,0 hPa 0,0 l/m 0,0 km/h (0 Bft) N-NW 337 -0,9 C 1,3 C 0,0 km/h (0 Bft)
17.02.2020 01:42 9,0 C 1,3 C 0,3 C 70 % 85 % 1020,0 hPa 0,0 l/m 0,0 km/h (0 Bft) O-NO 67 -0,9 C 1,3 C 0,0 km/h (0 Bft)
17.02.2020 01:40 9,0 C 1,3 C 0,2 C 70 % 85 % 1020,0 hPa 0,0 l/m 0,0 km/h (0 Bft) O-SO 112 -0,9 C 1,3 C 0,0 km/h (0 Bft)
17.02.2020 01:38 9,0 C 1,3 C 0,1 C 70 % 85 % 1020,0 hPa 0,0 l/m 0,0 km/h (0 Bft) N-NW 337 -0,9 C 1,3 C 0,0 km/h (0 Bft)
17.02.2020 01:36 9,0 C 1,3 C -0,2 C 70 % 85 % 1020,0 hPa 0,0 l/m 0,0 km/h (0 Bft) NW 315 -0,9 C 1,3 C 0,0 km/h (0 Bft)
17.02.2020 01:34 9,0 C 1,3 C -0,2 C 70 % 84 % 1020,0 hPa 0,0 l/m 0,2 km/h (0 Bft) N-NW 337 -1,1 C 1,3 C 0,0 km/h (0 Bft)
17.02.2020 01:32 8,9 C 1,3 C -0,3 C 70 % 84 % 1019,9 hPa 0,0 l/m 0,3 km/h (0 Bft) N-NW 337 -1,1 C 1,3 C 0,0 km/h (0 Bft)
17.02.2020 01:30 9,1 C 1,4 C -0,3 C 70 % 84 % 1019,9 hPa 0,0 l/m 0,3 km/h (0 Bft) O-SO 112 -1,0 C 1,4 C 0,0 km/h (0 Bft)
17.02.2020 01:28 9,1 C 1,6 C -0,2 C 70 % 85 % 1019,9 hPa 0,0 l/m 0,3 km/h (0 Bft) SO 135 -0,6 C 1,6 C 0,0 km/h (0 Bft)
17.02.2020 01:26 9,1 C 1,6 C 0,0 C 70 % 85 % 1019,9 hPa 0,0 l/m 0,5 km/h (0 Bft) O-SO 112 -0,6 C 1,6 C 0,0 km/h (0 Bft)
17.02.2020 01:24 9,1 C 1,8 C 0,1 C 70 % 84 % 1019,9 hPa 0,0 l/m 1,0 km/h (0 Bft) SO 135 -0,6 C 1,8 C 0,0 km/h (0 Bft)
17.02.2020 01:22 9,1 C 1,8 C 0,2 C 70 % 84 % 1019,9 hPa 0,0 l/m 0,8 km/h (0 Bft) SO 135 -0,6 C 1,8 C 0,0 km/h (0 Bft)
17.02.2020 01:20 9,1 C 1,5 C 0,1 C 70 % 84 % 1019,9 hPa 0,0 l/m 0,8 km/h (0 Bft) NO 45 -0,9 C 1,5 C 0,0 km/h (0 Bft)
17.02.2020 01:18 9,2 C 1,5 C 0,2 C 70 % 84 % 1019,9 hPa 0,0 l/m 1,3 km/h (1 Bft) N-NW 337 -0,9 C 1,5 C 0,0 km/h (0 Bft)
17.02.2020 01:16 9,2 C 1,6 C -0,1 C 70 % 84 % 1019,9 hPa 0,0 l/m 1,3 km/h (1 Bft) N 360 -0,8 C 1,6 C 4,4 km/h (1 Bft)
17.02.2020 01:14 9,2 C 1,6 C 0,2 C 70 % 84 % 1019,9 hPa 0,0 l/m 0,8 km/h (0 Bft) N-NW 337 -0,8 C 1,6 C 4,0 km/h (1 Bft)
17.02.2020 01:12 9,2 C 1,6 C 0,2 C 70 % 84 % 1019,7 hPa 0,0 l/m 0,5 km/h (0 Bft) N 360 -0,8 C 1,6 C 0,0 km/h (0 Bft)
17.02.2020 01:10 9,2 C 1,6 C 0,1 C 70 % 84 % 1019,7 hPa 0,0 l/m 0,5 km/h (0 Bft) N-NO 22 -0,8 C 1,6 C 0,0 km/h (0 Bft)
17.02.2020 01:08 9,2 C 1,5 C -0,2 C 70 % 84 % 1019,7 hPa 0,0 l/m 0,3 km/h (0 Bft) NO 45 -0,9 C 1,5 C 2,5 km/h (1 Bft)
17.02.2020 01:06 9,2 C 1,4 C -0,1 C 70 % 84 % 1019,7 hPa 0,0 l/m 0,2 km/h (0 Bft) N-NO 22 -1,0 C 1,4 C 0,0 km/h (0 Bft)
17.02.2020 01:04 9,2 C 1,5 C -0,1 C 70 % 84 % 1019,7 hPa 0,0 l/m 0,2 km/h (0 Bft) N-NO 22 -0,9 C 1,5 C 0,0 km/h (0 Bft)
17.02.2020 01:02 9,1 C 1,6 C 0,1 C 70 % 84 % 1019,7 hPa 0,0 l/m 0,2 km/h (0 Bft) N-NW 337 -0,8 C 1,6 C 0,0 km/h (0 Bft)
17.02.2020 01:00 9,1 C 1,9 C 0,1 C 70 % 84 % 1019,7 hPa 0,0 l/m 0,2 km/h (0 Bft) N-NW 337 -0,5 C 1,9 C 0,0 km/h (0 Bft)
17.02.2020 00:58 9,1 C 2,1 C 0,1 C 70 % 84 % 1019,7 hPa 0,0 l/m 0,2 km/h (0 Bft) NW 315 -0,3 C 2,1 C 0,0 km/h (0 Bft)
17.02.2020 00:56 9,1 C 2,2 C 0,1 C 70 % 84 % 1019,7 hPa 0,0 l/m 0,0 km/h (0 Bft) S-SW 202 -0,2 C 2,2 C 0,0 km/h (0 Bft)
17.02.2020 00:54 9,3 C 2,2 C 0,1 C 70 % 84 % 1019,7 hPa 0,0 l/m 0,0 km/h (0 Bft) O-SO 112 -0,2 C 2,2 C 0,0 km/h (0 Bft)
17.02.2020 00:52 9,3 C 2,2 C 0,2 C 70 % 84 % 1019,7 hPa 0,0 l/m 0,0 km/h (0 Bft) O-SO 112 -0,2 C 2,2 C 0,0 km/h (0 Bft)
17.02.2020 00:50 9,2 C 2,1 C 0,3 C 70 % 83 % 1019,7 hPa 0,0 l/m 0,0 km/h (0 Bft) O-SO 112 -0,5 C 2,1 C 0,0 km/h (0 Bft)
17.02.2020 00:48 9,2 C 2,2 C 0,4 C 70 % 83 % 1019,7 hPa 0,0 l/m 0,0 km/h (0 Bft) NO 45 -0,4 C 2,2 C 0,0 km/h (0 Bft)
17.02.2020 00:46 9,2 C 2,2 C 0,5 C 70 % 83 % 1019,7 hPa 0,0 l/m 0,0 km/h (0 Bft) NW 315 -0,4 C 2,2 C 0,0 km/h (0 Bft)
17.02.2020 00:44 9,2 C 2,2 C 0,6 C 70 % 83 % 1019,7 hPa 0,0 l/m 0,0 km/h (0 Bft) O-SO 112 -0,4 C 2,2 C 0,0 km/h (0 Bft)
17.02.2020 00:42 9,2 C 2,2 C 0,8 C 70 % 83 % 1019,7 hPa 0,0 l/m 0,0 km/h (0 Bft) O 90 -0,4 C 2,2 C 0,0 km/h (0 Bft)
17.02.2020 00:40 9,4 C 2,0 C 0,6 C 70 % 83 % 1019,7 hPa 0,0 l/m 0,0 km/h (0 Bft) SO 135 -0,6 C 2,0 C 0,0 km/h (0 Bft)
17.02.2020 00:38 9,4 C 2,0 C 0,4 C 70 % 83 % 1019,7 hPa 0,0 l/m 0,3 km/h (0 Bft) N-NO 22 -0,6 C 2,0 C 0,0 km/h (0 Bft)
17.02.2020 00:36 9,4 C 1,8 C 0,4 C 71 % 83 % 1019,7 hPa 0,0 l/m 0,6 km/h (0 Bft) N-NO 22 -0,8 C 1,8 C 4,0 km/h (1 Bft)
17.02.2020 00:34 9,4 C 1,8 C 0,5 C 71 % 83 % 1019,7 hPa 0,0 l/m 1,0 km/h (0 Bft) N-NO 22 -0,8 C 1,8 C 0,0 km/h (0 Bft)
17.02.2020 00:32 9,4 C 1,9 C 0,6 C 71 % 83 % 1019,6 hPa 0,0 l/m 1,0 km/h (0 Bft) SO 135 -0,7 C 1,9 C 0,0 km/h (0 Bft)
17.02.2020 00:30 9,4 C 1,9 C 0,8 C 71 % 83 % 1019,6 hPa 0,0 l/m 1,0 km/h (0 Bft) S-SO 157 -0,7 C 1,9 C 0,0 km/h (0 Bft)
17.02.2020 00:28 9,4 C 1,9 C 0,6 C 71 % 83 % 1019,6 hPa 0,0 l/m 0,8 km/h (0 Bft) SO 135 -0,7 C 1,9 C 2,7 km/h (1 Bft)
17.02.2020 00:26 9,4 C 1,9 C 0,8 C 71 % 83 % 1019,6 hPa 0,0 l/m 0,5 km/h (0 Bft) SO 135 -0,7 C 1,9 C 3,6 km/h (1 Bft)
17.02.2020 00:24 9,3 C 1,9 C 0,8 C 71 % 83 % 1019,6 hPa 0,0 l/m 0,3 km/h (0 Bft) O-SO 112 -0,7 C 1,9 C 0,0 km/h (0 Bft)
17.02.2020 00:22 9,3 C 1,9 C 0,6 C 71 % 83 % 1019,6 hPa 0,0 l/m 0,3 km/h (0 Bft) SW 225 -0,7 C 1,9 C 0,0 km/h (0 Bft)
17.02.2020 00:20 9,5 C 2,0 C 0,6 C 71 % 83 % 1019,6 hPa 0,0 l/m 0,3 km/h (0 Bft) W 270 -0,6 C 2,0 C 0,0 km/h (0 Bft)
17.02.2020 00:18 9,5 C 2,0 C 0,6 C 71 % 83 % 1019,6 hPa 0,0 l/m 0,3 km/h (0 Bft) SO 135 -0,6 C 2,0 C 0,0 km/h (0 Bft)
17.02.2020 00:16 9,5 C 2,0 C 0,8 C 71 % 83 % 1019,6 hPa 0,0 l/m 0,3 km/h (0 Bft) SO 135 -0,6 C 2,0 C 0,0 km/h (0 Bft)
17.02.2020 00:14 9,4 C 2,0 C 1,1 C 71 % 83 % 1019,6 hPa 0,0 l/m 0,3 km/h (0 Bft) O-SO 112 -0,6 C 2,0 C 2,7 km/h (1 Bft)
17.02.2020 00:12 9,4 C 2,2 C 1,1 C 71 % 83 % 1019,8 hPa 0,0 l/m 0,0 km/h (0 Bft) O-SO 112 -0,4 C 2,2 C 0,0 km/h (0 Bft)
17.02.2020 00:10 9,6 C 2,2 C 1,1 C 71 % 83 % 1019,8 hPa 0,0 l/m 0,0 km/h (0 Bft) O-SO 112 -0,4 C 2,2 C 0,0 km/h (0 Bft)
17.02.2020 00:08 9,6 C 2,2 C 1,1 C 71 % 83 % 1019,8 hPa 0,0 l/m 0,0 km/h (0 Bft) O-SO 112 -0,4 C 2,2 C 0,0 km/h (0 Bft)
17.02.2020 00:06 9,6 C 2,2 C 1,1 C 71 % 83 % 1019,8 hPa 0,0 l/m 0,0 km/h (0 Bft) O-SO 112 -0,4 C 2,2 C 0,0 km/h (0 Bft)
17.02.2020 00:04 9,6 C 2,2 C 1,1 C 71 % 83 % 1019,8 hPa 0,0 l/m 0,0 km/h (0 Bft) O-SO 112 -0,4 C 2,2 C 0,0 km/h (0 Bft)
17.02.2020 00:02 9,6 C 2,2 C 1,2 C 71 % 83 % 1019,8 hPa 0,0 l/m 0,0 km/h (0 Bft) O-SO 112 -0,4 C 2,2 C 0,0 km/h (0 Bft)
17.02.2020 00:00 9,6 C 2,3 C 1,1 C 71 % 83 % 1019,8 hPa 0,0 l/m 0,0 km/h (0 Bft) SO 135 -0,3 C 2,3 C 0,0 km/h (0 Bft)
_ Min-Zeit 07:26 05:46 02:28 07:26 00:50 03:52 - 07:26 - - 02:34 05:46 07:26
Minimum _ 7,5 C -0,2 C -1,4 C 70 % 83 % 1019,2 hPa - 0,0 km/h (0 Bft) - - -2,3 C -0,2 C 0,0 km/h (0 Bft)
_ Max-Zeit 00:10 00:00 00:02 05:30 07:26 02:12 07:26 04:48 - - 00:56 00:00 03:36
Maximum _ 9,6 C 2,3 C 1,2 C 71 % 89 % 1020,1 hPa 0,0 l/m 2,6 km/h
NW (1 Bft)
- - -0,2 C 2,3 C 7,5 km/h
NW (2 Bft)
Durchschnitt _ 8,4 C 0,7 C -0,3 C 70 % 86 % 1019,7 hPa #0,0 l/m 0,4 km/h (0 Bft) N-NW - -1,3 C 0,7 C 0,6 km/h (0 Bft)